{"data":{"norad_id":43802,"epoch":"2026-05-25T01:58:30.657792Z","epoch_age_seconds":74755,"freshness":"FRESH","line1":"1 43802U 18099AW  26145.08229928  .00240698  25036-4  54339-3 0  9998","line2":"2 43802  96.9184 193.8074 0003856 210.7280 149.3773 15.97624013419275","mean_motion":15.97624013,"eccentricity":0.0003856,"inclination_deg":96.9184,"raan_deg":193.8074,"arg_perigee_deg":210.728,"mean_anomaly_deg":149.3773,"bstar":0.00054339,"rev_number":41927,"period_min":90.13384803199,"perigee_km":278.44508814845,"apogee_km":283.58062451766,"semimajor_km":6659.1498563331,"source":"CELESTRAK","updated_at":"2026-05-25T13:38:13.297459Z"}}